This is the latest recevied weather packets stored in our database for station/object KE5WTH-14. If no packets are shown the sender has not sent any weather packets the latest 10 day(s).
| Time | Temp. | Humidity | Pressure | Rain* | Wind** | Luminosity | Snow |
|---|---|---|---|---|---|---|---|
| 1778265065 | 24.44° C | 66% | 1011.2 hPa | 0 mm | - | 746 W/m² | - |
| 1778265004 | 24.44° C | 67% | 1011.2 hPa | 0 mm | - | 906 W/m² | - |
| 1778264942 | 24.44° C | 64% | 1011.3 hPa | 0 mm | - | 1053 W/m² | - |
| 1778264881 | 24.44° C | 64% | 1011.2 hPa | 0 mm | - | 1192 W/m² | - |
| 1778264820 | 24.44° C | 65% | 1011.3 hPa | 0 mm | - | 612 W/m² | - |
| 1778264757 | 24.44° C | 61% | 1011.3 hPa | 0 mm | - | 877 W/m² | - |
| 1778264695 | 24.44° C | 64% | 1011.3 hPa | 0 mm | - | 1236 W/m² | - |
| 1778264635 | 24.44° C | 62% | 1011.3 hPa | 0 mm | - | 1162 W/m² | - |
| 1778264573 | 24.44° C | 62% | 1011.4 hPa | 0 mm | - | 638 W/m² | - |
| 1778264532 | 25° C | 63% | 1011.3 hPa | 0 mm | - | 1162 W/m² | - |
| 1778264504 | 25° C | 62% | 1011.4 hPa | 0 mm | - | 726 W/m² | - |
| 1778264478 | 25° C | 61% | 1011.4 hPa | 0 mm | - | 528 W/m² | - |
| 1778264446 | 25° C | 63% | 1011.4 hPa | 0 mm | - | 681 W/m² | - |
| 1778264256 | 25° C | 65% | 1011.4 hPa | 0 mm | - | 626 W/m² | - |
| 1778264194 | 24.44° C | 67% | 1011.4 hPa | 0 mm | - | 1015 W/m² | - |
| 1778264134 | 24.44° C | 67% | 1011.5 hPa | 0 mm | - | 1022 W/m² | - |
| 1778264074 | 24.44° C | 68% | 1011.5 hPa | 0 mm | - | 1032 W/m² | - |
| 1778264014 | 24.44° C | 66% | 1011.5 hPa | 0 mm | - | 1044 W/m² | - |
| 1778263953 | 24.44° C | 63% | 1011.6 hPa | 0 mm | - | 1080 W/m² | - |
| 1778263894 | 24.44° C | 64% | 1011.6 hPa | 0 mm | - | 1080 W/m² | - |
| 1778263833 | 24.44° C | 63% | 1011.6 hPa | 0 mm | - | 1097 W/m² | - |
| 1778263773 | 24.44° C | 64% | 1011.6 hPa | 0 mm | - | 932 W/m² | - |
| 1778263704 | 24.44° C | 67% | 1011.7 hPa | 0 mm | - | 677 W/m² | - |
| 1778263654 | 24.44° C | 66% | 1011.6 hPa | 0 mm | - | 1073 W/m² | - |
| 1778263622 | 24.44° C | 64% | 1011.6 hPa | 0 mm | - | 1050 W/m² | - |
* Rain latest hour (hover to see other rain measurements)
** Current wind speed in m/s (hover to see current wind gust speed)